Location: Pardubice
(50.0330°N, 15.7830°E)
Time: 09:38:26
(UTC+02:00)

Vanguard 2 - Visible Passes

Search period start: 07 October 2024 00:00
Search period end: 17 October 2024 00:00
Orbit: 552 x 2910 km, 32.9° (Epoch: 06 October)

Date Brightness Start Highest point End Pass type
(mag) Time Alt. Az. Time Alt. Az. Time Alt. Az.
07 Oct 10.6 19:06:50 10° S 19:10:34 12° SSE 19:13:52 10° SE visible
07 Oct 10.2 21:12:18 10° SW 21:17:43 19° S 21:17:43 19° S visible
08 Oct 10.4 19:17:48 10° SSW 19:24:09 16° SSE 19:29:13 10° SE visible
08 Oct 10.1 21:25:14 10° SW 21:30:55 20° SSW 21:30:55 20° SSW visible
09 Oct 10.3 19:29:46 10° SSW 19:37:43 19° SSE 19:42:59 12° SE visible
09 Oct 10.2 21:38:23 10° SW 21:44:04 21° SSW 21:44:04 21° SSW visible
10 Oct 10.2 19:42:13 10° SSW 19:51:16 23° S 19:56:06 15° SE visible
10 Oct 10.2 21:51:42 10° SW 21:57:12 22° SSW 21:57:12 22° SSW visible
11 Oct 10.1 19:54:58 10° SW 20:04:49 26° S 20:09:11 19° SE visible
11 Oct 10.3 22:05:09 10° WSW 22:10:17 21° SW 22:10:17 21° SW visible
12 Oct 10.0 20:07:57 10° SW 20:18:20 28° S 20:22:14 22° SE visible
12 Oct 10.4 22:18:44 10° WSW 22:23:20 19° SW 22:23:20 19° SW visible
13 Oct 10.0 20:21:07 10° SW 20:31:50 30° S 20:35:16 24° SSE visible
13 Oct 10.6 22:32:26 10° WSW 22:36:21 18° SW 22:36:21 18° SW visible
14 Oct 10.6 18:24:30 10° SW 18:36:35 28° SSE 18:45:29 10° ESE visible
14 Oct 9.9 20:34:25 10° WSW 20:45:17 30° S 20:48:16 26° SSE visible
14 Oct 10.8 22:46:19 10° WSW 22:49:21 15° SW 22:49:21 15° SW visible
15 Oct 10.6 18:37:17 10° SW 18:50:04 31° S 18:59:17 10° ESE visible
15 Oct 10.0 20:47:50 10° WSW 20:58:43 30° SSW 21:01:15 27° S visible
15 Oct 10.9 23:00:26 10° WSW 23:02:20 13° WSW 23:02:20 13° WSW visible
16 Oct 10.6 18:50:17 10° SW 19:03:32 34° S 19:12:59 10° ESE visible
16 Oct 10.1 21:01:21 10° WSW 21:12:05 29° SSW 21:14:14 27° S visible
16 Oct 11.1 23:15:02 10° WSW 23:15:18 10° WSW 23:15:18 10° WSW visible
